This demonstration page uses our WeatherBlox Daily Observations layout. Learn more.

Left ArrowRight Arrow

40.92945, -100.16068

Hourly Observations for February 24, 2021

Temp ( °F °C ) Dew Point ( °F °C ) Humidity (%) Winds ( mph kmh ) Pressure ( in mb ) Visibility ( mi km ) Precip ( " mm )
12:15 am 00:15 Clear 35 1.5 28 -2 78 78 WNW 12 19 30.06 1018 10 16.0934 N/A
12:35 am 00:35 Clear 33 0.7 28 -2 82 82 W 7 11 30.08 1019 10 16.0934 N/A
12:55 am 00:55 Clear 35 1.5 28 -2.5 75 75 NW 14 22 30.08 1019 10 16.0934 N/A
1:15 am 01:15 Clear 34 1.2 27 -2.8 75 75 NW 13 20 30.09 1019 10 16.0934 N/A
1:35 am 01:35 Clear 32 0.1 27 -2.7 82 82 WNW 10 17 30.11 1020 10 16.0934 N/A
1:55 am 01:55 Clear 33 0.5 26 -3.2 77 77 NW 13 20 30.1 1019 10 16.0934 N/A
2:15 am 02:15 Clear 32 0.2 27 -3 79 79 NW 17 28 30.11 1019 10 16.0934 N/A
2:35 am 02:35 Clear 32 undefined 26 -3.2 79 79 NW 16 26 30.12 1020 10 16.0934 N/A
2:55 am 02:55 Clear 32 undefined 26 -3.6 77 77 NNW 14 22 30.12 1020 10 16.0934 N/A
3:15 am 03:15 Clear 32 undefined 26 -3.6 77 77 NNW 16 26 30.12 1020 10 16.0934 N/A
3:35 am 03:35 Clear 32 undefined 25 -3.7 76 76 NNW 16 26 30.12 1020 10 16.0934 N/A
3:55 am 03:55 Clear 32 undefined 25 -3.8 76 76 NNW 15 24 30.13 1020 10 16.0934 N/A
4:15 am 04:15 Clear 32 undefined 25 -3.7 76 76 NNW 14 22 30.13 1020 10 16.0934 N/A
4:35 am 04:35 Clear 32 -0.2 25 -3.7 78 78 NNW 14 22 30.13 1020 10 16.0934 N/A
4:55 am 04:55 Clear 31 -0.5 25 -3.7 79 79 NNW 15 24 30.14 1021 10 16.0934 N/A
5:15 am 05:15 Clear 31 -0.5 25 -3.8 79 79 NNW 13 20 30.15 1021 10 16.0934 N/A
5:35 am 05:35 Clear 31 -0.8 25 -3.7 81 81 NNW 13 20 30.16 1021 10 16.0934 N/A
5:55 am 05:55 Clear 30 -1 25 -3.7 82 82 N 14 22 30.16 1021 10 16.0934 N/A
6:15 am 06:15 Clear 30 -1 25 -3.7 82 82 N 16 26 30.17 1022 10 16.0934 N/A
6:35 am 06:35 Clear 30 -1 25 -4 80 80 N 14 22 30.18 1022 10 16.0934 N/A
6:55 am 06:55 Clear 30 -1.1 25 -4 81 81 NNW 14 22 30.19 1022 10 16.0934 N/A
7:15 am 07:15 Clear 30 -1.2 25 -4 82 82 NNW 14 22 30.2 1023 10 16.0934 N/A
7:35 am 07:35 Sunny 29 -1.5 25 -4.1 83 83 NNW 9 15 30.22 1023 10 16.0934 N/A
7:55 am 07:55 Sunny 29 -1.5 25 -4 83 83 NNW 8 13 30.23 1024 10 16.0934 N/A
8:15 am 08:15 Sunny 30 -1.1 25 -3.8 82 82 NNW 10 17 30.24 1024 10 16.0934 N/A
8:35 am 08:35 Sunny 31 -0.7 26 -3.6 81 81 NNW 12 19 30.25 1025 10 16.0934 N/A
8:55 am 08:55 Sunny 31 -0.4 26 -3.4 80 80 NNW 13 20 30.26 1025 10 16.0934 N/A
9:15 am 09:15 Sunny 32 undefined 26 -3.2 79 79 N 10 17 30.28 1025 10 16.0934 N/A
9:35 am 09:35 Sunny 32 undefined 27 -3 80 80 N 12 19 30.28 1025 10 16.0934 N/A
9:55 am 09:55 Sunny 33 0.5 27 -3 78 78 N 12 19 30.28 1025 10 16.0934 N/A
10:15 am 10:15 Sunny 33 0.8 27 -3 76 76 NNW 10 17 30.29 1026 10 16.0934 N/A
10:35 am 10:35 Sunny 34 1.2 27 -2.8 75 75 N 10 17 30.29 1026 10 16.0934 N/A
10:55 am 10:55 Sunny 35 1.7 28 -2.5 74 74 N 9 15 30.28 1025 10 16.0934 N/A
11:15 am 11:15 Sunny 36 2 27 -2.7 71 71 N 5 7 30.29 1026 10 16.0934 N/A
11:35 am 11:35 Sunny 36 2.3 28 -2.5 71 71 NNW 8 13 30.28 1026 10 16.0934 N/A
11:55 am 11:55 Sunny 37 2.7 27 -2.6 68 68 NNW 8 13 30.29 1026 10 16.0934 N/A
12:15 pm 12:15 Sunny 37 3 27 -2.6 67 67 N 6 9 30.29 1026 10 16.0934 N/A
12:35 pm 12:35 Sunny 38 3.4 28 -2 68 68 N 8 13 30.27 1025 10 16.0934 N/A
12:55 pm 12:55 Sunny 39 3.7 28 -2.4 65 65 NNW 6 9 30.27 1025 10 16.0934 N/A
1:15 pm 13:15 Sunny 39 3.9 27 -2.8 62 62 NW 6 9 30.27 1025 10 16.0934 N/A
1:35 pm 13:35 Sunny 39 4 28 -2.5 63 63 WNW 3 6 30.26 1025 10 16.0934 N/A
1:55 pm 13:55 Sunny 40 4.4 29 -1.6 65 65 N N/A 30.25 1025 10 16.0934 N/A
2:15 pm 14:15 Sunny 40 4.5 28 -2.1 63 63 W 3 6 30.25 1024 10 16.0934 N/A
2:35 pm 14:35 Sunny 41 4.8 28 -2 62 62 WNW 3 6 30.25 1024 10 16.0934 N/A
2:55 pm 14:55 Sunny 41 5.1 28 -2.1 60 60 NW 3 6 30.25 1024 10 16.0934 N/A
3:15 pm 15:15 Sunny 41 5.1 27 -3 56 56 N N/A 30.25 1024 10 16.0934 N/A
3:35 pm 15:35 Sunny 42 5.3 26 -3.4 54 54 N 3 6 30.25 1024 10 16.0934 N/A
3:55 pm 15:55 Sunny 42 5.6 26 -3.4 53 53 N N/A 30.24 1024 10 16.0934 N/A
4:15 pm 16:15 Sunny 43 5.9 26 -3.2 52 52 WNW 3 6 30.24 1024 10 16.0934 N/A
4:35 pm 16:35 Sunny 43 6 25 -4 49 49 N N/A 30.24 1024 10 16.0934 N/A
4:55 pm 16:55 Sunny 43 6 25 -4.1 49 49 N N/A 30.24 1024 10 16.0934 N/A
5:15 pm 17:15 Sunny 43 6.1 24 -4.3 48 48 N N/A 30.24 1024 10 16.0934 N/A
5:35 pm 17:35 Sunny 42 5.8 25 -4.1 49 49 N N/A 30.24 1024 10 16.0934 N/A
5:55 pm 17:55 Sunny 42 5.7 26 -3.6 52 52 N N/A 30.25 1024 10 16.0934 N/A
6:15 pm 18:15 Sunny 42 5.4 27 -3 55 55 S 3 6 30.25 1025 10 16.0934 N/A
6:35 pm 18:35 Clear 39 4.1 27 -2.8 61 61 SSW 5 7 30.28 1025 10 16.0934 N/A
6:55 pm 18:55 Clear 37 2.7 27 -2.9 67 67 SW 5 7 30.31 1026 10 16.0934 N/A
7:15 pm 19:15 Clear 35 1.5 26 -3.2 71 71 W 6 9 30.33 1027 10 16.0934 N/A
7:35 pm 19:35 Clear 35 1.4 27 -2.7 74 74 WSW 7 11 30.34 1028 10 16.0934 N/A
7:55 pm 19:55 Clear 35 1.5 26 -3.3 71 71 W 7 11 30.35 1028 10 16.0934 N/A
8:15 pm 20:15 Clear 34 0.9 26 -3.2 74 74 NW 7 11 30.37 1028 10 16.0934 N/A
8:35 pm 20:35 Clear 34 0.9 26 -3.5 73 73 N 6 9 30.38 1029 10 16.0934 N/A
8:55 pm 20:55 Clear 33 0.4 26 -3.5 75 75 N 6 9 30.39 1029 10 16.0934 N/A
9:15 pm 21:15 Clear 32 undefined 25 -4 75 75 NNW 6 9 30.41 1030 10 16.0934 N/A
9:35 pm 21:35 Clear 29 -1.5 24 -4.5 80 80 W 6 9 30.44 1031 10 16.0934 N/A
9:55 pm 21:55 Clear 30 -1 25 -4 80 80 NW 5 7 30.45 1031 10 16.0934 N/A
10:15 pm 22:15 Clear 30 -1.1 24 -4.5 78 78 NW 6 9 30.46 1031 10 16.0934 N/A
10:35 pm 22:35 Clear 30 -1.2 24 -4.5 79 79 NNW 6 9 30.47 1032 10 16.0934 N/A
10:55 pm 22:55 Clear 30 -0.9 24 -4.2 79 79 NNW 6 9 30.47 1032 10 16.0934 N/A
11:15 pm 23:15 Clear 30 -1.1 25 -4.1 80 80 NNW 6 9 30.47 1032 10 16.0934 N/A
11:35 pm 23:35 Clear 30 -1 24 -4.5 77 77 NNW 7 11 30.47 1032 10 16.0934 N/A
11:55 pm 23:55 Clear 30 -1.2 24 -4.6 78 78 NW 8 13 30.48 1032 10 16.0934 N/A

Powered by AerisWeather